7 * 24
多渠道服务支持
NAVSTAR 9(USA 1)是美国于1984年6月13日发射的导航卫星,隶属于GPS全球定位系统的早期试验星座NAVSTAR系列。作为美国发展全球卫星导航系统的早期节点任务,它承担着定位导航技术验证、星座组网试验任务,为后续GPS系统的成熟部署奠定了技术基础,标志着美国全球导航卫星网络建设进入实质测试阶段。
美国
(US)
| 数据来源 | 国际轨道数据 |
| 星历时间: | 2026-06-11T17:02:18+0800 1天前 查看轨道信息 |
| 半长轴: | 27315.663km |
| 偏心率: | 0.0243382 |
| 轨道倾角: | 63.576° |
| 近地点辐角 | 53.924° |
| 升交点赤经 | 64.464° |
| 平近点角 | 107.312° |
| 近地点: | 20272.711km |
| 远地点: | 21602.341km |
| 周期: | 748.820分钟 |
| 每日圈数: | 1.923026 |